Starlink 5334

operational
NORAD ID: 56509 Int'l Des: 2023-065 Owner: SPXS Country: US Constellation: starlink
LEOCIRCULAR

Starlink 5334について

説明を読み込み中...

リアルタイム位置

3D地球を読み込み中...

次回通過

高度履歴

Altitude vs Time

uPlot chart will show altitude changes over time

軌道要素

1 56509U 23065G 26037.31595199 .00001150 00000-0 10020-3 0 9994
2 56509 43.0045 20.9611 0001277 273.5989 86.4708 15.02529299151905
Epoch: Feb 6, 2026 • Age: 21 hours

現在のステータス

高度 562.7 km
速度 7.59 km/s
衛星直下点 41.33°N, 121.29°W
打ち上げ日 May 14, 2023
運用期間 2.7 years
タイプ internet

技術仕様

分類 Payload
質量 305.00 kg
乾燥質量 290.00 kg
総質量 305.00 kg
長さ 0.20 m
直径 2.80 m
スパン 9.00 m
形状 Box + pan
製造者 SPXS
バスタイプ Starlink
フェーズステータス In Orbit
所有者/国 SPXS/US

大規模コンステレーション

Loading constellations...